Weather History for KLDJ - October, 2013

Change the Weather History Date:

Tuesday, October 8, 2013

  Actual Average (KEWR) Record (KEWR)
Temperature  
Mean Temperature 60 °F 59 °F  
Max Temperature 69 °F 68 °F 89 °F (2007)
Min Temperature 52 °F 51 °F 32 °F (1935)
Degree Days  
Heating Degree Days 4 7  
Month to date heating degree days 44  
Since 1 July heating degree days 89  
Cooling Degree Days 0 1  
Month to date cooling degree days 9  
Year to date cooling degree days 1183  
Growing Degree Days 10 (Base 50)    
Moisture  
Dew Point 45 °F    
Average Humidity 57    
Maximum Humidity 85    
Minimum Humidity 37    
Precipitation  
Precipitation 0.00 in 0.12 in 4.08 in (2005)
Month to date precipitation 0.95  
Year to date precipitation 36.14  
Snow  
Snow 0.00 in 0.00 in 0.00 in (2002)
Month to date snowfall 0.0  
Since 1 July snowfall 0.0  
Snow Depth -    
Sea Level Pressure  
Sea Level Pressure 30.22 in    
Wind  
Wind Speed 5 mph (North)    
Max Wind Speed 10 mph    
Max Gust Speed 16 mph    
Visibility 10 miles    
Events      
T = Trace of Precipitation, MM = Missing Value Source: NWS Daily Summary

Daily Weather History Graph

Daily Weather History Graph

Search for Another Location

Airport or City:

Trip Planner

Search our weather history database for the weather conditions in past years. The results will help you decide how hot, cold, wet, or windy it might be!

Date:

Astronomy

Oct. 08, 2013 Rise Set
Actual Time 7:00 AM EDT 6:27 PM EDT
Civil Twilight 6:33 AM EDT 6:54 PM EDT
Nautical Twilight 6:01 AM EDT 7:26 PM EDT
Astronomical Twilight 5:30 AM EDT 7:57 PM EDT
Moon 10:53 AM EDT (10/8) 9:00 PM EDT (10/8)
Length of Visible Light 12h 21m
Length of Day
11h 26m
Waxing Crescent, 16% of the Moon is Illuminated
Oct 8
Waxing Crescent
Oct 11
First Quarter
Oct 18
Full
Oct 26
Last Quarter
Nov 3
New

Hourly Weather History & Observations

Time (EDT) Temp. Dew Point Humidity Pressure Visibility Wind Dir Wind Speed Gust Speed Precip Events Conditions
12:15 AM 59.5 °F 51.3 °F 74% 30.02 in 10.0 mi WNW 4.6 mph - N/A   Clear
12:35 AM 59.4 °F 50.9 °F 74% 30.03 in 10.0 mi WNW 3.5 mph - N/A   Clear
12:55 AM 59.4 °F 51.1 °F 74% 30.04 in 10.0 mi WNW 3.5 mph - N/A   Clear
1:15 AM 59.0 °F 49.1 °F 70% 30.05 in 10.0 mi West 4.6 mph - N/A   Clear
1:35 AM 58.8 °F 48.4 °F 68% 30.06 in 10.0 mi WNW 4.6 mph - N/A   Clear
1:55 AM 56.8 °F 48.9 °F 75% 30.07 in 10.0 mi NW 4.6 mph - N/A   Clear
2:15 AM 56.3 °F 49.5 °F 78% 30.08 in 10.0 mi WNW 3.5 mph - N/A   Clear
2:35 AM 56.1 °F 49.1 °F 77% 30.08 in 10.0 mi Calm Calm - N/A   Clear
2:55 AM 54.5 °F 48.7 °F 81% 30.09 in 10.0 mi Calm Calm - N/A   Clear
3:15 AM 55.4 °F 48.7 °F 78% 30.09 in 10.0 mi Calm Calm - N/A   Clear
3:35 AM 54.5 °F 47.8 °F 78% 30.10 in 10.0 mi Calm Calm - N/A   Clear
3:55 AM 53.6 °F 47.8 °F 81% 30.11 in 10.0 mi Calm Calm - N/A   Clear
4:15 AM 53.4 °F 48.6 °F 84% 30.12 in 10.0 mi Calm Calm - N/A   Clear
4:35 AM 53.6 °F 48.0 °F 81% 30.13 in 10.0 mi Calm Calm - N/A   Clear
4:55 AM 53.6 °F 47.5 °F 80% 30.14 in 10.0 mi WNW 4.6 mph - N/A   Clear
5:15 AM 52.7 °F 47.8 °F 84% 30.15 in 10.0 mi NW 4.6 mph - N/A   Clear
5:35 AM 52.2 °F 47.8 °F 85% 30.15 in 10.0 mi NW 4.6 mph - N/A   Clear
5:55 AM 52.2 °F 47.3 °F 83% 30.16 in 10.0 mi WNW 5.8 mph - N/A   Clear
6:15 AM 53.1 °F 46.9 °F 80% 30.16 in 10.0 mi WNW 9.2 mph - N/A   Clear
6:35 AM 52.9 °F 46.6 °F 79% 30.18 in 10.0 mi NW 6.9 mph - N/A   Clear
6:55 AM 52.9 °F 46.4 °F 79% 30.18 in 10.0 mi NNW 4.6 mph - N/A   Clear
7:15 AM 53.4 °F 45.9 °F 76% 30.19 in 10.0 mi NNW 6.9 mph - N/A   Clear
7:35 AM 53.8 °F 45.9 °F 75% 30.20 in 10.0 mi NNW 6.9 mph - N/A   Clear
7:55 AM 53.8 °F 45.9 °F 75% 30.21 in 10.0 mi NNW 4.6 mph - N/A   Clear
8:15 AM 55.6 °F 46.2 °F 71% 30.23 in 10.0 mi NNW 5.8 mph - N/A   Clear
8:35 AM 57.6 °F 45.9 °F 65% 30.25 in 10.0 mi NNW 4.6 mph - N/A   Clear
8:55 AM 58.6 °F 46.0 °F 63% 30.25 in 10.0 mi NNW 6.9 mph - N/A   Clear
9:15 AM 60.3 °F 45.9 °F 59% 30.26 in 10.0 mi North 5.8 mph - N/A   Clear
9:35 AM 60.8 °F 46.0 °F 58% 30.27 in 10.0 mi NNW 5.8 mph - N/A   Clear
9:55 AM 61.7 °F 44.8 °F 54% 30.26 in 10.0 mi North 9.2 mph - N/A   Clear
10:15 AM 62.2 °F 44.8 °F 53% 30.27 in 10.0 mi North 5.8 mph - N/A   Clear
10:35 AM 63.0 °F 43.3 °F 49% 30.27 in 10.0 mi NNE 6.9 mph - N/A   Clear
10:55 AM 64.0 °F 43.2 °F 47% 30.27 in 10.0 mi NNE 9.2 mph - N/A   Clear
11:15 AM 64.4 °F 42.4 °F 45% 30.26 in 10.0 mi NNE 9.2 mph 16.1 mph N/A   Clear
11:35 AM 65.5 °F 42.4 °F 43% 30.27 in 10.0 mi North 6.9 mph - N/A   Clear
11:55 AM 66.0 °F 41.9 °F 41% 30.27 in 10.0 mi NNE 3.5 mph - N/A   Clear
12:15 PM 66.2 °F 42.4 °F 42% 30.26 in 10.0 mi NE 5.8 mph - N/A   Clear
12:35 PM 66.7 °F 40.8 °F 39% 30.26 in 10.0 mi NNE 9.2 mph - N/A   Clear
12:55 PM 66.6 °F 43.2 °F 43% 30.25 in 10.0 mi North 9.2 mph - N/A   Clear
1:15 PM 67.5 °F 41.5 °F 39% 30.24 in 10.0 mi NNE 8.1 mph - N/A   Clear
1:35 PM 68.2 °F 42.8 °F 40% 30.24 in 10.0 mi North 9.2 mph - N/A   Clear
1:55 PM 67.6 °F 43.2 °F 41% 30.24 in 10.0 mi North 4.6 mph - N/A   Clear
2:15 PM 68.4 °F 43.2 °F 40% 30.24 in 10.0 mi NNE 5.8 mph - N/A   Clear
2:35 PM 68.9 °F 42.8 °F 39% 30.25 in 10.0 mi North 4.6 mph - N/A   Clear
2:55 PM 69.3 °F 42.3 °F 38% 30.25 in 10.0 mi NNE 9.2 mph - N/A   Clear
3:15 PM 69.1 °F 41.7 °F 37% 30.25 in 10.0 mi NNE 6.9 mph - N/A   Clear
3:35 PM 69.4 °F 42.6 °F 38% 30.25 in 10.0 mi North 9.2 mph - N/A   Clear
3:55 PM 69.1 °F 42.1 °F 38% 30.25 in 10.0 mi North 10.4 mph - N/A   Clear
4:15 PM 68.4 °F 41.7 °F 38% 30.25 in 10.0 mi NNE 8.1 mph - N/A   Clear
4:35 PM 68.0 °F 41.0 °F 37% 30.25 in 10.0 mi NNE 10.4 mph - N/A   Clear
4:55 PM 67.5 °F 40.3 °F 37% 30.25 in 10.0 mi NNE 8.1 mph - N/A   Clear
5:15 PM 67.6 °F 40.3 °F 37% 30.25 in 10.0 mi ENE 8.1 mph - N/A   Clear
5:35 PM 67.1 °F 39.9 °F 37% 30.26 in 10.0 mi NNE 5.8 mph - N/A   Clear
5:55 PM 66.7 °F 39.9 °F 37% 30.27 in 10.0 mi NNE 4.6 mph - N/A   Clear
6:15 PM 66.6 °F 41.2 °F 40% 30.28 in 10.0 mi East 5.8 mph - N/A   Clear
6:35 PM 65.7 °F 42.6 °F 43% 30.28 in 10.0 mi NE 6.9 mph - N/A   Clear
6:55 PM 65.3 °F 43.0 °F 44% 30.29 in 10.0 mi NE 4.6 mph - N/A   Clear
7:15 PM 64.6 °F 42.1 °F 44% 30.29 in 10.0 mi NE 6.9 mph - N/A   Clear
7:35 PM 64.4 °F 41.4 °F 43% 30.30 in 10.0 mi NE 5.8 mph - N/A   Clear
7:55 PM 64.0 °F 42.1 °F 45% 30.30 in 10.0 mi ENE 4.6 mph - N/A   Clear
8:15 PM 63.9 °F 42.4 °F 46% 30.30 in 10.0 mi NE 6.9 mph - N/A   Clear
8:35 PM 63.7 °F 42.4 °F 46% 30.31 in 10.0 mi NNE 5.8 mph - N/A   Clear
8:55 PM 63.5 °F 42.8 °F 47% 30.31 in 10.0 mi NE 6.9 mph - N/A   Clear
9:15 PM 63.0 °F 42.8 °F 48% 30.32 in 10.0 mi NE 6.9 mph - N/A   Clear
9:35 PM 62.8 °F 41.9 °F 46% 30.32 in 10.0 mi NE 9.2 mph - N/A   Clear
9:55 PM 62.1 °F 42.1 °F 48% 30.33 in 10.0 mi NE 5.8 mph - N/A   Clear
10:15 PM 61.7 °F 42.3 °F 49% 30.34 in 10.0 mi NE 6.9 mph - N/A   Clear
10:35 PM 61.7 °F 43.3 °F 51% 30.34 in 10.0 mi NE 8.1 mph - N/A   Clear
10:55 PM 61.2 °F 43.7 °F 53% 30.34 in 10.0 mi NE 9.2 mph - N/A   Clear
11:15 PM 60.4 °F 43.9 °F 54% 30.34 in 10.0 mi NE 8.1 mph - N/A   Clear
11:35 PM 59.9 °F 44.2 °F 56% 30.34 in 10.0 mi NE 6.9 mph - N/A   Clear
11:55 PM 59.5 °F 44.4 °F 57% 30.34 in 10.0 mi NE 8.1 mph - N/A   Clear